Location: Stendal
(52.5994°N, 11.8400°E)
Time: 21:45:10
(UTC+01:00)

N. Korean satellite - Visible Passes

Search period start: 12 November 2019 00:00
Search period end: 22 November 2019 00:00
Orbit: 456 x 506 km, 97.2° (Epoch: 12 November)

Date Brightness Start Highest point End Pass type
(mag) Time Alt. Az. Time Alt. Az. Time Alt. Az.
12 Nov 9.3 05:24:52 10° NE 05:27:54 23° E 05:30:53 10° SSE visible
12 Nov 8.2 17:38:49 10° SSW 17:42:12 38° W 17:45:41 10° NNW visible
13 Nov 10.1 05:00:25 10° ENE 05:02:16 13° E 05:04:07 10° ESE visible
13 Nov 6.6 06:32:23 10° N 06:36:08 69° WNW 06:39:49 10° SSW visible
13 Nov 6.9 17:13:09 10° S 17:16:45 75° WSW 17:20:27 10° NNW visible
14 Nov 7.2 06:07:01 10° NNE 06:10:44 63° ESE 06:14:25 10° S visible
14 Nov 10.0 18:23:03 10° SW 18:25:11 15° W 18:27:20 10° NW visible
15 Nov 8.5 05:41:50 10° NNE 05:45:16 34° E 05:48:40 10° SSE visible
15 Nov 9.1 17:56:29 10° SSW 17:59:34 26° W 18:02:43 10° NW visible
16 Nov 9.6 05:16:57 10° NE 05:19:43 19° E 05:22:26 10° SE visible
16 Nov 7.0 06:49:44 10° N 06:53:20 44° WNW 06:56:52 10° SW visible
16 Nov 7.8 17:30:32 10° S 17:34:03 47° W 17:37:39 10° NNW visible
17 Nov 10.3 04:53:00 10° ENE 04:54:03 11° E 04:55:05 10° ESE visible
17 Nov 6.6 06:24:15 10° NNE 06:28:00 83° WNW 06:31:42 10° SSW visible
17 Nov 6.6 17:04:58 10° SSE 17:08:37 89° ENE 17:12:21 10° NNW visible
18 Nov 7.6 05:58:55 10° NNE 06:02:35 51° E 06:06:12 10° S visible
18 Nov 9.7 18:14:23 10° SW 18:16:56 18° W 18:19:32 10° NW visible
19 Nov 8.9 05:33:48 10° NNE 05:37:04 28° E 05:40:18 10° SSE visible
19 Nov 8.7 17:48:03 10° SSW 17:51:21 31° W 17:54:42 10° NNW visible
20 Nov 9.8 05:09:05 10° NE 05:11:28 16° E 05:13:50 10° SE visible
20 Nov 6.7 06:41:33 10° N 06:45:12 54° WNW 06:48:47 10° SSW visible
20 Nov 7.3 17:22:14 10° S 17:25:51 58° W 17:29:32 10° NNW visible
21 Nov 6.7 06:16:05 10° NNE 06:19:50 81° ESE 06:23:30 10° S visible
21 Nov 6.6 16:56:47 10° SSE 17:00:26 74° ENE 17:04:10 10° N visible
21 Nov 10.1 18:32:47 10° WSW 18:34:20 12° W 18:35:54 10° WNW visible
